Flag for U.S.A. Weather past 2 weeks in Tuba City, Arizona, U.S.A.

Now
37 °F

Light rain. Fog.


Feels Like: 30 °F
Forecast: 41 / 46 °F
Wind: 10 mph from East

Location: Grand Canyon National Park Airport

Current Time: Jan 30, 2015 at 9:37:14 AM

Latest Report: Jan 30, 2015 at 8:54 AM


Visibility: 5 mi

Pressure: 29.94 "Hg

Humidity: 89%

Dew point: 34 °F

Location of Tuba CityLocation

Historic Weather in Tuba City — Graph

°F

Tuba City temperature yesterday

Maximum temperature yesterday: 50 °F (at 12:54 PM)
Minimum temperature yesterday: 37 °F (at 12:54 AM)
Average temperature yesterday: 43 °F

Past Weeks' High & Low Weather Summary

 TemperatureHumidityPressure
High58 °F (Jan 18, 3:54 PM)97% (Jan 27, 4:54 AM)30.49 "Hg (Jan 27, 4:54 AM)
Low11 °F (Jan 22, 5:54 AM)11% (Jan 16, 2:54 PM)29.93 "Hg (Jan 30, 6:54 AM)
Average35 °F62%30.26 "Hg
* Reported Jan 15 7:54 AM — Jan 30 7:54 AM, Tuba City, Weather by CustomWeather, © 2014

Note: Actual official high and low records may vary slightly from our data, if they occured in-between our weather recording intervals... More about our weather records

Advertising

Tuba City weather history for previous 24 hours

 ConditionsComfort  
Time TempWeatherWind HumidityBarometerVisibility
7:54 AM
Jan 30
36 °FLight rain. Overcast.10 mph92%29.95 "Hg8 mi
6:54 AM36 °FLight rain. Mostly cloudy.9 mph92%29.93 "Hg10 mi
5:54 AM36 °FLight rain. Overcast.10 mph92%29.95 "Hg8 mi
4:54 AM37 °FLight rain. Overcast.13 mph89%29.95 "Hg9 mi
3:54 AM36 °FLight rain. Mostly cloudy.10 mph97%29.98 "Hg10 mi
2:54 AM37 °FLight rain. Fog.10 mph93%30.00 "Hg6 mi
2:01 AM37 °FLight rain. Overcast.13 mph93%30.12 "Hg7 mi
12:54 AM37 °FLight rain. Overcast.8 mph93%30.03 "Hg10 mi
12:02 AM37 °FLight rain. Mostly cloudy.6 mph93%30.17 "Hg7 mi
10:54 PM
Jan 29
37 °FLight rain. Fog.9 mph93%30.11 "Hg6 mi
9:54 PM38 °FLight rain. Fog.12 mph93%30.13 "Hg5 mi
8:54 PM39 °FLight rain. Mostly cloudy.6 mph89%30.14 "Hg10 mi
7:54 PM39 °FLight rain. Fog.6 mph93%30.16 "Hg6 mi
6:54 PM44 °FLight rain. Overcast.10 mph65%30.12 "Hg10 mi
5:54 PM45 °FMostly cloudy.6 mph58%30.11 "Hg10 mi
4:54 PM46 °FMostly cloudy.10 mph56%30.09 "Hg10 mi
3:54 PM47 °FMostly cloudy.10 mph54%30.08 "Hg10 mi
2:54 PM49 °FOvercast.15 mph50%30.09 "Hg10 mi
1:54 PM49 °FPartly sunny.13 mph52%30.11 "Hg10 mi
12:54 PM50 °FPartly sunny.15 mph50%30.14 "Hg10 mi
11:54 AM47 °FPartly sunny.13 mph54%30.20 "Hg10 mi
10:54 AM45 °FOvercast.14 mph56%30.23 "Hg10 mi
9:54 AM42 °FPartly sunny.10 mph65%30.22 "Hg10 mi
Weather by CustomWeather, © 2014

See weather overviewHow to use our weather pages